View from above orbital plane
|
View from above satellite
|
Ground track
|
The orbit data is extracted from the following two-line orbital elements,
1 11416U 79057A 21060.43016609 .00000012 00000-0 20614-4 0 9999
2 11416 98.6663 65.5109 0009765 208.7572 151.3075 14.33620092173741
Epoch (UTC): | 01 March 2021 10:19:26 |
Eccentricity: | 0.0009765 |
inclination: | 98.6663° |
perigee height: | 772 km |
apogee height: | 786 km |
right ascension of ascending node: | 65.5109° |
argument of perigee: | 208.7572° |
revolutions per day: | 14.33620092 |
mean anomaly at epoch: | 151.3075° |
orbit number at epoch: | 17374 |
The dashed part of the orbit path shows where the satellite is in the earth's shadow,
|
|